Regional Weather Roundup
Issued by NWS

Home | Current Version | Previous Version | Text Only | Print | Product List | Glossary Off
Versions: 1 2 3 4 5 6 7 8 9 10 11 12 13 14 15 16 17 18 19 20 21 22 23 24 25 26 27 28 29 30 31 32 33 34 35 36 37 38 39 40 41 42 43 44 45 46 47 48 49 50

000
ASUS43 KFSD 020210
RWRSD

WEATHER ROUNDUP FOR SOUTH DAKOTA
NATIONAL WEATHER SERVICE SIOUX FALLS SD
800 PM CST THU DEC 01 2016

NOTE: "FAIR" INDICATES FEW OR NO CLOUDS BELOW 12,000 FEET WITH NO
SIGNIFICANT WEATHER AND/OR OBSTRUCTIONS TO VISIBILITY.


SDZ001>005-009-010-012>017-020300-
NORTHWEST AND NORTH CENTRAL SOUTH DAKOTA

CITY           SKY/WX    TMP DP  RH WIND       PRES   REMARKS
BUFFALO          N/A     25  22  88 E5        29.92R WCI  19
FAITH            N/A     26  26 100 CALM      30.01R
MOBRIDGE       LGT SNOW  30  26  85 NE6       30.02R FOG     WCI  24
$$

SDZ012>016-024>037-041>051-057-063-072>074-020300-
SOUTHWEST AND SOUTH CENTRAL SOUTH DAKOTA

CITY           SKY/WX    TMP DP  RH WIND       PRES   REMARKS
RAPID CTY ARPT CLOUDY    22  17  81 N3        29.99R
PIERRE         CLOUDY    29  27  92 W3        30.03R
CUSTER         CLOUDY    26  16  65 W6        29.91R WCI  19
ELLSWORTH AFB  CLOUDY    24  19  80 CALM      29.98R
PHILIP         CLOUDY    24  21  88 NW3       30.03R
PINE RIDGE     CLOUDY    28  21  75 E7        29.98R WCI  21
SPEARFISH      FAIR      19  14  79 SW3       29.97R
WINNER         FAIR      28  25  88 W5        30.04R WCI  23
$$

SDZ004>011-016>023-039-040-020300-
NORTHEAST SOUTH DAKOTA

CITY           SKY/WX    TMP DP  RH WIND       PRES   REMARKS
ABERDEEN       CLOUDY    30  25  81 N7        30.05R WCI  23
WATERTOWN      CLOUDY    29  26  89 N9        30.00R WCI  20
BROOKINGS      CLOUDY    31  29  92 N7        30.00S WCI  24
SISSETON         N/A     30  27  88 N12       30.03R WCI  20
$$

SDZ017-020-022-023-036>040-048>070-020300-
SOUTHEAST SOUTH DAKOTA

CITY           SKY/WX    TMP DP  RH WIND       PRES   REMARKS
SIOUX FALLS    CLOUDY    33  31  92 NW6       30.02R WCI  28
HURON          CLOUDY    32  31  96 NW5       30.04R WCI  27
CHAMBERLAIN    LGT SNOW  31  31  99 W5        30.04R WCI  27
MITCHELL       CLOUDY    33  31  92 NW5       30.05R WCI  29
YANKTON        CLOUDY    34  27  75 W7        30.04S WCI  28
$$

ABBREVIATIONS USED IN REMARKS
   TC - TEMPERATURE IN CELSIUS
  WCI - WIND CHILL INDEX
   HX - HEAT INDEX
  VSB - VISIBILITY





USA.gov is the U.S. government's official web portal to all federal, state and local government web resources and services.